Fort Atkinson, Wisconsin, United States (53538)
Lat: 42.93N, Lon: 88.84W
Wx Zone: WIZ064
Local Info
Past Weather Observations for Today

NOTE: This archive is for the closest National Weather Service station to Fort Atkinson. Information may differ from the station used for current weather conditions.

Click here for Long-term Archive

Time Weather Temperature Dewpoint Humidity Pressure Winds Precip Visibility
11:35
Mostly Cloudy
Light Rain
73°F / 23°C 73°F / 23°C 100% 29.92 in
(1013 mb)
SSW 8.1 mph
(SSW 13 kph)
- 7SM
11:15
Mostly Cloudy
75°F / 24°C 75°F / 24°C 100% 29.92 in
(1013 mb)
SSW 9.2 mph
(SSW 15 kph)
- 10SM
10:55
Overcast
Light Rain
75°F / 24°C 75°F / 24°C 100% 29.92 in
(1013 mb)
SW 9.2 mph
(SW 15 kph)
0.08 in
(2.03 mm)
7SM
10:35
Overcast
Rain
75°F / 24°C 75°F / 24°C 100% 29.92 in
(1013 mb)
SSW 13.8 mph
(SSW 22 kph)
- 7SM
10:15
Overcast
77°F / 25°C 75°F / 24°C 94% 29.92 in
(1013 mb)
SW 10.4 mph
(SW 17 kph)
- 10SM
09:55
Partly Cloudy
77°F / 25°C 75°F / 24°C 94% 29.92 in
(1013 mb)
SSE 12.7 mph
(SSE 20 kph)
- 10SM
09:35
Clear
77°F / 25°C 73°F / 23°C 89% 29.92 in
(1013 mb)
S 8.1 mph
(S 13 kph)
- 10SM
09:15
Partly Cloudy
77°F / 25°C 73°F / 23°C 89% 29.92 in
(1013 mb)
S 8.1 mph
(S 13 kph)
- 10SM
08:55
Partly Cloudy
75°F / 24°C 73°F / 23°C 94% 29.92 in
(1013 mb)
SSE 10.4 mph
(SSE 17 kph)
- 10SM
08:35
Clear
73°F / 23°C 73°F / 23°C 100% 29.92 in
(1013 mb)
S 6.9 mph
(S 11 kph)
- 7SM
08:15
Clear
73°F / 23°C 72°F / 22°C 94% 29.92 in
(1013 mb)
S 8.1 mph
(S 13 kph)
- 7SM
07:55
Clear
72°F / 22°C 72°F / 22°C 100% 29.92 in
(1013 mb)
S 5.8 mph
(S 9 kph)
- 7SM
07:35
Clear
Fog And Mist
72°F / 22°C 72°F / 22°C 100% 29.92 in
(1013 mb)
S 5.8 mph
(S 9 kph)
- 5SM
07:15
Clear
Fog And Mist
70°F / 21°C 70°F / 21°C 100% 29.92 in
(1013 mb)
SSE 6.9 mph
(SSE 11 kph)
- 5SM
06:55
Clear
Fog And Mist
70°F / 21°C 70°F / 21°C 100% 29.95 in
(1014 mb)
S 5.8 mph
(S 9 kph)
- 5SM
06:35
Clear
Fog And Mist
68°F / 20°C 68°F / 20°C 100% 29.92 in
(1013 mb)
S 4.6 mph
(S 7 kph)
- 5SM
06:15
Clear
Fog And Mist
68°F / 20°C 68°F / 20°C 100% 29.95 in
(1014 mb)
SSE 6.9 mph
(SSE 11 kph)
- 5SM
05:55
Clear
Fog And Mist
66°F / 19°C 66°F / 19°C 100% 29.95 in
(1014 mb)
SSE 4.6 mph
(SSE 7 kph)
- 5SM
05:35
Clear
Fog And Mist
66°F / 19°C 66°F / 19°C 100% 29.95 in
(1014 mb)
SE 3.5 mph
(SE 6 kph)
- 5SM
05:15
Clear
Fog And Mist
64°F / 18°C 64°F / 18°C 100% 29.95 in
(1014 mb)
SSE 3.5 mph
(SSE 6 kph)
- 5SM
04:55
Clear
Fog And Mist
64°F / 18°C 64°F / 18°C 100% 29.95 in
(1014 mb)
S 3.5 mph
(S 6 kph)
- 5SM
04:35
Clear
Fog And Mist
64°F / 18°C 64°F / 18°C 100% 29.95 in
(1014 mb)
SSE 4.6 mph
(SSE 7 kph)
- 5SM
04:15
Clear
Fog And Mist
64°F / 18°C 64°F / 18°C 100% 29.95 in
(1014 mb)
S 3.5 mph
(S 6 kph)
- 5SM
03:55
Clear
64°F / 18°C 64°F / 18°C 100% 29.95 in
(1014 mb)
S 4.6 mph
(S 7 kph)
- 7SM
03:35
Clear
64°F / 18°C 64°F / 18°C 100% 29.95 in
(1014 mb)
S 4.6 mph
(S 7 kph)
- 7SM
03:15
Clear
64°F / 18°C 64°F / 18°C 100% 29.95 in
(1014 mb)
S 4.6 mph
(S 7 kph)
- 7SM
02:55
Clear
64°F / 18°C 64°F / 18°C 100% 29.95 in
(1014 mb)
SSE 4.6 mph
(SSE 7 kph)
- 7SM
02:35
Clear
64°F / 18°C 64°F / 18°C 100% 29.95 in
(1014 mb)
SSE 4.6 mph
(SSE 7 kph)
- 7SM
02:15
Clear
64°F / 18°C 64°F / 18°C 100% 29.98 in
(1015 mb)
SSE 3.5 mph
(SSE 6 kph)
- 7SM
01:55
Clear
64°F / 18°C 64°F / 18°C 100% 29.98 in
(1015 mb)
SSE 3.5 mph
(SSE 6 kph)
- 10SM
01:35
Clear
63°F / 17°C 63°F / 17°C 100% 30.01 in
(1016 mb)
Calm - 7SM
01:15
Clear
64°F / 18°C 64°F / 18°C 100% 30.01 in
(1016 mb)
Calm - 10SM
00:55
Clear
63°F / 17°C 63°F / 17°C 100% 30.01 in
(1016 mb)
Calm - 10SM
00:35
Clear
64°F / 18°C 64°F / 18°C 100% 29.98 in
(1015 mb)
Calm - 10SM
00:15
Clear
64°F / 18°C 64°F / 18°C 100% 29.98 in
(1015 mb)
SSE 4.6 mph
(SSE 7 kph)
- 10SM
Time Weather Temperature Dewpoint Humidity Pressure Winds Precip Visibility


Weather for websites

WeatherForYou.com, LLC is not responsible for any damages or problems caused by this service. Current weather conditions are obtained from the closest station including government and personal stations which may have varying degrees of accuracy. Weather forecasts are derived from the NOAA NDFD. Like all things, this site belongs to Jesus Christ... He just trusts us to maintain it. If you have any questions or comments email webmaster@weatherforyou.com

Copyright © 2015, WeatherForYou.com LLC. All rights reserved.